Location: Biltmore Gardens
(41.6070°N, 83.4666°W)
Time: 14:38:22
(UTC+00:00)

Cosmos 1703 Rocket - Pass Details

Date: 14 July 2020
Orbit: 605 x 634 km, 82.5° (Epoch: 12 August)

Event Time Altitude Azimuth Distance (km) Brightness Sun altitude
Rises 07:00:00 0° 350° (N) 2,928 8.0 -24.1°
Reaches altitude 10° 07:02:16 10° 349° (NNW) 2,013 6.9 -24.0°
Enters shadow 07:06:40 75° 272° (W) 651 3.5 -23.7°
